Regional Weather Roundup
Issued by NWS

Home | Current Version | Previous Version | Text Only | Print | Product List | Glossary On
Versions: 1 2 3 4 5 6 7 8 9 10 11 12 13 14 15 16 17 18 19 20 21 22 23 24 25 26 27 28 29 30 31 32 33 34 35 36 37 38 39 40 41 42 43 44 45 46 47 48 49 50
000
ASUS42 KFFC 021103
RWRGA
WEATHER ROUNDUP FOR GEORGIA
NATIONAL WEATHER SERVICE PEACHTREE CITY GA
700 AM EDT WED SEP 02 2015

NOTE: "FAIR" INDICATES FEW OR NO CLOUDS BELOW 12,000 FEET WITH NO
SIGNIFICANT WEATHER AND/OR OBSTRUCTIONS TO VISIBILITY.

* = USE WITH CAUTION. THE STATIONS MARKED WITH AN ASTERISK MAY NOT
REPORT WEATHER SUCH AS PRECIPITATION, FOG, OR THUNDER AND ARE NOT
QUALITY CONTROLLED BY NWS.

THE REMARK "TC" DENOTES TEMPERATURE READING IN DEGREES CELSIUS.

GAZ001>058-021200-
NORTH GEORGIA

CITY           SKY/WX    TMP DP  RH WIND       PRES   REMARKS
ATLANTA        PTCLDY    73  67  81 CALM      30.12R
ATHENS         CLEAR     68  66  93 CALM      30.11S
CHAMBLEE       CLEAR     69  69 100 CALM      30.12R
PEACHTREE CITY PTCLDY    67  66  97 CALM      30.12R FOG
ROME           MOCLDY    68  66  93 CALM      30.11R
WEST ATLANTA   PTCLDY    69  67  93 CALM      30.12R
GAINESVILLE    PTCLDY    70  68  93 N3        30.15R
CARTERSVILLE   PTCLDY    67  67 100 CALM      30.12S


CITY           SKY/WX    TMP DP  RH WIND       PRES   REMARKS
DALTON*        MOCLDY    66  66 100 CALM      30.12R FOG
MARIETTA       PTCLDY    70  69  96 CALM      30.12S
BLAIRSVILLE*     N/A     62  55  77 CALM      30.18S
$$

GAZ059>098-102>109-021200-
CENTRAL GEORGIA

CITY           SKY/WX    TMP DP  RH WIND       PRES   REMARKS
AUGUSTA-BUSH   PTCLDY    68  68 100 CALM      30.09R FOG
AUGUSTA-DANIEL CLEAR     75  71  87 CALM      30.10R
COLUMBUS       CLEAR     72  70  93 E3        30.08R
MACON          CLEAR     69  68  96 CALM      30.10R
ROBINS AFB     CLEAR     71  71  99 CALM      30.09R


CITY           SKY/WX    TMP DP  RH WIND       PRES   REMARKS
LAGRANGE*      CLEAR     71  71 100 CALM      30.10S
SYLVANIA*      FOG       74  74 100 CALM      30.10R VSB 1/2
MILLEDGEVILLE* CLEAR     72  70  94 CALM      30.10R
$$

GAZ099>101-110>166-021200-
SOUTH GEORGIA

CITY           SKY/WX    TMP DP  RH WIND       PRES   REMARKS
SAVANNAH       CLOUDY    76  74  93 CALM      30.09R
VALDOSTA       LGT RAIN  75  75 100 E6        30.06R
ALMA           CLOUDY    76  75  97 NW3       30.07R
ST SIMONS      MOCLDY    79  78  97 SW6       30.06R
FT STEWART     CLOUDY    75  73  95 CALM      30.06R
ALBANY         CLOUDY    74  72  93 N3        30.09R
HUNTER AFB     MOCLDY    76  76 100 N1        30.06R
MOODY AFB      LGT RAIN  75  73  94 E2        30.06R
BRUNSWICK        N/A     70  70 100 CALM      30.07R


CITY           SKY/WX    TMP DP  RH WIND       PRES   REMARKS
BAINBRIDGE*    CLOUDY    77  73  88 CALM      30.07R
MOULTRIE*      PTCLDY    75  73  94 CALM      30.07S FOG
VIDALIA*       CLOUDY    73  73 100 CALM      30.09S
WAYCROSS*      CLOUDY    79  79 100 CALM      30.07R
DOUGLAS*       CLOUDY    77  75  94 CALM      30.10R FOG
$$


USA.gov is the U.S. government's official web portal to all federal, state and local government web resources and services.